Hauptseite
METAR-TAF:

METAR-TAF

Flughäfen :

Mersing, Malaysia

Breite: 02-23-00N, Länge: 103-51-34E, Höhe: 3 m

Beobachtung

Neuester Wetterbericht von vor 33 Minuten, um 18:00 UTC
Wind 6 kt aus West/Südwest, variierte zwischen Südwest und Nordwest
Temperatur 24°C
Luftfeuchtigkeit 94%
Luftdruck 1009 hPa
Sichtweite: 9000 m
Leicht bewölkt in der Höhe von 400 ft

METAR: WMAU 181800Z 24006KT 230V310 9000 FEW004 24/23 Q1009

Zeit: 02:33 (18:33 UTC)


TAF: fehlend

Wetterbeobachtungen und Prognosen von mehr als 4000 Flughäfen (METAR und TAF Bericht).

Die verfügbaren Stationen werden durch gelbe und rote Markierungen auf der Karte dargestellt.

Führen Sie die Maus auf sie, um den Namen der Station zu sehen.

Darauf klicken, um die Beobachtung von Wetterbeobachtungen und Prognosen zu sehen.

Um die Karte zu ändern : klicken Sie auf den grünen Tasten mit einem schwarzen Kreuz Zum Vergrößern, auf den grünen Button mit einem Gedankenstrich zu verkleinern, oder auf die grünen Pfeile für benachbarte Karten.


METAR-TAF: